User: anonymous
Location: Valdosta
(30.8330°N, 83.2790°W)
Time: 23:45:19
(UTC-04:00)
Language:

Uribyol 2 - Orbit

View from above orbital plane
View from above orbital plane
View from above satellite
View from above satellite

Ground track
Ground track

The orbit data is extracted from the following two-line orbital elements,

1 22828U 93061F   14212.82782405  .00000100  00000-0  55389-4 0  6674
2 22828 098.6504 158.1854 0010966 127.5038 232.7143 14.30325304 55621
Epoch (UTC): 31 July 2014 19:52:03
Eccentricity: 0.0010966
inclination: 98.6504°
perigee height: 783 km
apogee height: 798 km
right ascension of ascending node: 158.1854°
argument of perigee: 127.5038°
revolutions per day: 14.30325304
mean anomaly at epoch: 232.7143°
orbit number at epoch: 5562

The dashed part of the orbit path shows where the satellite is in the earth's shadow,  

DLR